Time,TemperatureF,DewpointF,PressureIn,WindDirection,WindDirectionDegrees,WindSpeedMPH,WindSpeedGustMPH,Humidity,HourlyPrecipIn,Conditions,Clouds,dailyrainin,SoftwareType,DateUTC
2013-05-31 00:01:00,52.0,31.0,29.62,South,177,8.0,20.0,45,0.00,,,0.00,,2013-05-31 06:01:00,
2013-05-31 00:12:00,52.0,31.0,29.62,South,177,8.0,20.0,45,0.00,,,0.00,,2013-05-31 06:12:00,
2013-05-31 00:21:00,52.0,32.0,29.62,SW,235,11.0,17.0,47,0.00,,,0.00,,2013-05-31 06:21:00,
2013-05-31 00:31:00,51.0,33.0,29.62,SSE,158,10.0,16.0,50,0.00,,,0.00,,2013-05-31 06:31:00,
2013-05-31 00:41:00,51.0,33.0,29.62,SSE,158,10.0,16.0,50,0.00,,,0.00,,2013-05-31 06:41:00,
2013-05-31 00:51:00,49.0,37.0,29.62,ESE,106,6.0,21.0,62,0.00,,,0.00,,2013-05-31 06:51:00,
2013-05-31 01:02:00,48.0,36.0,29.62,ESE,120,8.0,15.0,63,0.00,,,0.00,,2013-05-31 07:02:00,
2013-05-31 01:11:00,48.0,36.0,29.62,ESE,120,8.0,15.0,63,0.00,,,0.00,,2013-05-31 07:11:00,
2013-05-31 01:21:00,48.0,36.0,29.61,SW,234,6.0,10.0,64,0.00,,,0.00,,2013-05-31 07:21:00,
2013-05-31 01:32:00,48.0,37.0,29.61,West,266,3.0,9.0,66,0.00,,,0.00,,2013-05-31 07:32:00,
2013-05-31 01:41:00,48.0,37.0,29.61,West,266,3.0,9.0,66,0.00,,,0.00,,2013-05-31 07:41:00,
2013-05-31 01:52:00,48.0,36.0,29.61,ESE,109,2.0,9.0,64,0.00,,,0.00,,2013-05-31 07:52:00,
2013-05-31 02:01:00,48.0,37.0,29.61,NW,309,6.0,8.0,66,0.00,,,0.00,,2013-05-31 08:01:00,
2013-05-31 02:11:00,48.0,37.0,29.61,NW,309,6.0,8.0,66,0.00,,,0.00,,2013-05-31 08:11:00,
2013-05-31 02:21:00,47.0,37.0,29.61,West,276,6.0,9.0,69,0.00,,,0.00,,2013-05-31 08:21:00,
2013-05-31 02:31:00,47.0,37.0,29.62,WNW,298,4.0,7.0,67,0.00,,,0.00,,2013-05-31 08:31:00,
2013-05-31 02:42:00,47.0,37.0,29.62,WNW,298,4.0,7.0,67,0.00,,,0.00,,2013-05-31 08:42:00,
2013-05-31 02:51:00,48.0,37.0,29.62,WNW,298,3.0,6.0,66,0.00,,,0.00,,2013-05-31 08:51:00,
2013-05-31 03:01:00,48.0,36.0,29.62,NW,311,2.0,5.0,62,0.00,,,0.00,,2013-05-31 09:01:00,
2013-05-31 03:11:00,48.0,36.0,29.62,NW,311,2.0,5.0,62,0.00,,,0.00,,2013-05-31 09:11:00,
2013-05-31 03:21:00,48.0,35.0,29.62,NNW,348,4.0,7.0,61,0.00,,,0.00,,2013-05-31 09:21:00,
2013-05-31 03:32:00,48.0,36.0,29.62,NNW,339,5.0,9.0,62,0.00,,,0.00,,2013-05-31 09:32:00,
2013-05-31 03:43:00,48.0,36.0,29.62,NNW,339,5.0,9.0,62,0.00,,,0.00,,2013-05-31 09:43:00,
2013-05-31 03:53:00,47.0,35.0,29.62,North,355,3.0,6.0,62,0.00,,,0.00,,2013-05-31 09:53:00,
2013-05-31 04:02:00,47.0,35.0,29.62,North,351,3.0,6.0,63,0.00,,,0.00,,2013-05-31 10:02:00,
2013-05-31 04:12:00,47.0,35.0,29.62,North,351,3.0,6.0,63,0.00,,,0.00,,2013-05-31 10:12:00,
2013-05-31 04:22:00,47.0,35.0,29.63,North,351,2.0,5.0,64,0.00,,,0.00,,2013-05-31 10:22:00,
2013-05-31 04:32:00,47.0,37.0,29.63,NNW,337,3.0,5.0,67,0.00,,,0.00,,2013-05-31 10:32:00,
2013-05-31 04:42:00,47.0,37.0,29.63,NNW,337,3.0,5.0,67,0.00,,,0.00,,2013-05-31 10:42:00,
2013-05-31 04:52:00,46.0,36.0,29.63,NNW,336,3.0,5.0,69,0.00,,,0.00,,2013-05-31 10:52:00,
2013-05-31 05:01:00,46.0,37.0,29.64,NW,309,3.0,5.0,70,0.00,,,0.00,,2013-05-31 11:01:00,
2013-05-31 05:11:00,46.0,37.0,29.64,NW,309,3.0,5.0,70,0.00,,,0.00,,2013-05-31 11:11:00,
2013-05-31 05:22:00,46.0,36.0,29.64,North,360,3.0,7.0,67,0.00,,,0.00,,2013-05-31 11:22:00,
2013-05-31 05:32:00,46.0,36.0,29.64,NNW,346,0.0,3.0,69,0.00,,,0.00,,2013-05-31 11:32:00,
2013-05-31 05:42:00,46.0,36.0,29.64,NNW,346,0.0,3.0,69,0.00,,,0.00,,2013-05-31 11:42:00,
2013-05-31 05:52:00,45.0,38.0,29.64,NNW,331,3.0,5.0,77,0.00,,,0.00,,2013-05-31 11:52:00,
2013-05-31 06:01:00,45.0,37.0,29.63,NNW,331,3.0,4.0,73,0.00,,,0.00,,2013-05-31 12:01:00,
2013-05-31 06:11:00,45.0,37.0,29.63,NNW,331,3.0,4.0,73,0.00,,,0.00,,2013-05-31 12:11:00,
2013-05-31 06:21:00,45.0,37.0,29.64,NW,317,4.0,7.0,72,0.00,,,0.00,,2013-05-31 12:21:00,
2013-05-31 06:31:00,45.0,37.0,29.64,NW,313,3.0,6.0,72,0.00,,,0.00,,2013-05-31 12:31:00,
2013-05-31 06:41:00,45.0,37.0,29.64,NW,313,3.0,6.0,72,0.00,,,0.00,,2013-05-31 12:41:00,
2013-05-31 06:51:00,45.0,37.0,29.65,WNW,290,2.0,6.0,72,0.00,,,0.00,,2013-05-31 12:51:00,
2013-05-31 07:01:00,45.0,36.0,29.66,WNW,290,2.0,4.0,71,0.00,,,0.00,,2013-05-31 13:01:00,
2013-05-31 07:11:00,45.0,36.0,29.66,WNW,290,2.0,4.0,71,0.00,,,0.00,,2013-05-31 13:11:00,
2013-05-31 07:21:00,46.0,37.0,29.66,WNW,290,0.0,2.0,70,0.00,,,0.00,,2013-05-31 13:21:00,
2013-05-31 07:32:00,46.0,37.0,29.66,WNW,292,2.0,6.0,70,0.00,,,0.00,,2013-05-31 13:32:00,
2013-05-31 07:42:00,46.0,37.0,29.66,WNW,292,2.0,6.0,70,0.00,,,0.00,,2013-05-31 13:42:00,
2013-05-31 07:52:00,46.0,36.0,29.67,NW,305,4.0,6.0,68,0.00,,,0.00,,2013-05-31 13:52:00,
2013-05-31 08:02:00,46.0,35.0,29.68,NW,324,3.0,6.0,66,0.00,,,0.00,,2013-05-31 14:02:00,
2013-05-31 08:11:00,46.0,35.0,29.68,NW,324,3.0,6.0,66,0.00,,,0.00,,2013-05-31 14:11:00,
2013-05-31 08:21:00,46.0,36.0,29.68,North,355,3.0,6.0,69,0.00,,,0.00,,2013-05-31 14:21:00,
2013-05-31 08:31:00,47.0,37.0,29.69,NNE,18,2.0,6.0,68,0.00,,,0.00,,2013-05-31 14:31:00,
2013-05-31 08:41:00,47.0,37.0,29.69,NNE,18,2.0,6.0,68,0.00,,,0.00,,2013-05-31 14:41:00,
2013-05-31 08:52:00,47.0,37.0,29.69,NNE,30,2.0,5.0,67,0.00,,,0.00,,2013-05-31 14:52:00,
2013-05-31 09:01:00,48.0,37.0,29.70,NNE,30,0.0,4.0,65,0.00,,,0.00,,2013-05-31 15:01:00,
2013-05-31 09:11:00,48.0,37.0,29.70,NNE,30,0.0,4.0,65,0.00,,,0.00,,2013-05-31 15:11:00,
2013-05-31 09:21:00,49.0,37.0,29.70,NNE,30,1.0,4.0,62,0.00,,,0.00,,2013-05-31 15:21:00,
2013-05-31 09:33:00,51.0,38.0,29.70,NNE,31,3.0,6.0,62,0.00,,,0.00,,2013-05-31 15:33:00,
2013-05-31 09:43:00,51.0,38.0,29.70,NNE,31,3.0,6.0,62,0.00,,,0.00,,2013-05-31 15:43:00,
2013-05-31 09:53:00,53.0,38.0,29.70,NE,42,4.0,8.0,57,0.00,,,0.00,,2013-05-31 15:53:00,
2013-05-31 10:03:00,54.0,34.0,29.70,SSW,213,2.0,11.0,47,0.00,,,0.00,,2013-05-31 16:03:00,
2013-05-31 10:12:00,54.0,34.0,29.70,SSW,213,2.0,11.0,47,0.00,,,0.00,,2013-05-31 16:12:00,
2013-05-31 10:22:00,55.0,31.0,29.70,South,169,8.0,21.0,40,0.00,,,0.00,,2013-05-31 16:22:00,
2013-05-31 10:33:00,56.0,33.0,29.70,SSW,211,14.0,20.0,41,0.00,,,0.00,,2013-05-31 16:33:00,
2013-05-31 10:42:00,56.0,33.0,29.70,SSW,211,14.0,20.0,41,0.00,,,0.00,,2013-05-31 16:42:00,
2013-05-31 10:52:00,55.0,32.0,29.70,SSW,207,13.0,22.0,42,0.00,,,0.00,,2013-05-31 16:52:00,
2013-05-31 11:02:00,55.0,33.0,29.71,SW,216,11.0,24.0,43,0.00,,,0.00,,2013-05-31 17:02:00,
2013-05-31 11:12:00,55.0,33.0,29.71,SW,216,11.0,24.0,43,0.00,,,0.00,,2013-05-31 17:12:00,
2013-05-31 11:22:00,56.0,33.0,29.71,SW,220,13.0,19.0,42,0.00,,,0.00,,2013-05-31 17:22:00,
2013-05-31 11:32:00,56.0,32.0,29.71,SW,215,15.0,21.0,40,0.00,,,0.00,,2013-05-31 17:32:00,
2013-05-31 11:42:00,56.0,32.0,29.71,SW,215,15.0,21.0,40,0.00,,,0.00,,2013-05-31 17:42:00,
2013-05-31 11:52:00,57.0,34.0,29.72,WSW,250,10.0,28.0,41,0.00,,,0.00,,2013-05-31 17:52:00,
2013-05-31 12:01:00,57.0,32.0,29.71,SW,219,16.0,27.0,39,0.00,,,0.00,,2013-05-31 18:01:00,
2013-05-31 12:11:00,57.0,32.0,29.71,SW,219,16.0,27.0,39,0.00,,,0.00,,2013-05-31 18:11:00,
2013-05-31 12:22:00,57.0,32.0,29.72,SW,219,18.0,30.0,38,0.00,,,0.00,,2013-05-31 18:22:00,
2013-05-31 12:31:00,57.0,32.0,29.72,SSW,205,17.0,29.0,39,0.00,,,0.00,,2013-05-31 18:31:00,
2013-05-31 12:41:00,57.0,32.0,29.72,SSW,205,17.0,29.0,39,0.00,,,0.00,,2013-05-31 18:41:00,
2013-05-31 12:52:00,57.0,32.0,29.71,WSW,254,16.0,29.0,39,0.00,,,0.00,,2013-05-31 18:52:00,
2013-05-31 13:01:00,58.0,33.0,29.72,SSE,157,12.0,29.0,38,0.00,,,0.00,,2013-05-31 19:01:00,
2013-05-31 13:11:00,58.0,33.0,29.72,SSE,157,12.0,29.0,38,0.00,,,0.00,,2013-05-31 19:11:00,
2013-05-31 13:22:00,59.0,33.0,29.72,West,264,15.0,26.0,37,0.00,,,0.00,,2013-05-31 19:22:00,
2013-05-31 13:31:00,58.0,33.0,29.72,SW,229,19.0,30.0,38,0.00,,,0.00,,2013-05-31 19:31:00,
2013-05-31 13:42:00,58.0,33.0,29.72,SW,229,19.0,30.0,38,0.00,,,0.00,,2013-05-31 19:42:00,
2013-05-31 13:52:00,58.0,32.0,29.73,SSW,212,21.0,37.0,37,0.00,,,0.00,,2013-05-31 19:52:00,
2013-05-31 14:01:00,58.0,32.0,29.73,South,185,22.0,34.0,37,0.00,,,0.00,,2013-05-31 20:01:00,
2013-05-31 14:11:00,58.0,32.0,29.73,South,185,22.0,34.0,37,0.00,,,0.00,,2013-05-31 20:11:00,
2013-05-31 14:22:00,58.0,31.0,29.73,WSW,257,20.0,34.0,36,0.00,,,0.00,,2013-05-31 20:22:00,
2013-05-31 14:31:00,58.0,32.0,29.73,SW,227,19.0,36.0,37,0.00,,,0.00,,2013-05-31 20:31:00,
2013-05-31 14:41:00,58.0,32.0,29.73,SW,227,19.0,36.0,37,0.00,,,0.00,,2013-05-31 20:41:00,
2013-05-31 14:51:00,58.0,31.0,29.75,WSW,242,13.0,34.0,36,0.00,,,0.00,,2013-05-31 20:51:00,
2013-05-31 15:01:00,59.0,32.0,29.74,WSW,248,22.0,34.0,36,0.00,,,0.00,,2013-05-31 21:01:00,
2013-05-31 15:11:00,59.0,32.0,29.74,WSW,248,22.0,34.0,36,0.00,,,0.00,,2013-05-31 21:11:00,
2013-05-31 15:22:00,59.0,31.0,29.74,WSW,253,21.0,33.0,35,0.00,,,0.00,,2013-05-31 21:22:00,
2013-05-31 15:32:00,59.0,32.0,29.75,SW,219,22.0,32.0,36,0.00,,,0.00,,2013-05-31 21:32:00,
2013-05-31 15:42:00,59.0,32.0,29.75,SW,219,22.0,32.0,36,0.00,,,0.00,,2013-05-31 21:42:00,
2013-05-31 15:53:00,58.0,31.0,29.76,SW,234,25.0,34.0,36,0.00,,,0.00,,2013-05-31 21:53:00,
2013-05-31 16:02:00,58.0,31.0,29.78,SW,217,14.0,45.0,36,0.00,,,0.00,,2013-05-31 22:02:00,
2013-05-31 16:12:00,58.0,31.0,29.78,SW,217,14.0,45.0,36,0.00,,,0.00,,2013-05-31 22:12:00,
2013-05-31 16:22:00,58.0,33.0,29.78,SW,215,23.0,39.0,38,0.00,,,0.00,,2013-05-31 22:22:00,
2013-05-31 16:33:00,57.0,32.0,29.78,WSW,243,15.0,26.0,38,0.00,,,0.00,,2013-05-31 22:33:00,
2013-05-31 16:42:00,58.0,32.0,29.79,SW,223,17.0,33.0,37,0.00,,,0.00,,2013-05-31 22:42:00,
2013-05-31 16:52:00,58.0,32.0,29.79,SW,223,17.0,33.0,37,0.00,,,0.00,,2013-05-31 22:52:00,
2013-05-31 17:02:00,56.0,31.0,29.80,SW,229,21.0,38.0,39,0.00,,,0.00,,2013-05-31 23:02:00,
2013-05-31 17:12:00,56.0,31.0,29.80,SW,229,21.0,38.0,39,0.00,,,0.00,,2013-05-31 23:12:00,
2013-05-31 17:21:00,56.0,31.0,29.81,West,261,16.0,31.0,39,0.00,,,0.00,,2013-05-31 23:21:00,
2013-05-31 17:32:00,56.0,32.0,29.83,WSW,247,15.0,33.0,40,0.00,,,0.00,,2013-05-31 23:32:00,
2013-05-31 17:42:00,56.0,31.0,29.83,SW,226,18.0,33.0,39,0.00,,,0.00,,2013-05-31 23:42:00,
2013-05-31 17:52:00,56.0,31.0,29.83,SW,226,18.0,33.0,39,0.00,,,0.00,,2013-05-31 23:52:00,
2013-05-31 18:01:00,56.0,32.0,29.83,SW,220,15.0,27.0,40,0.00,,,0.00,,2013-06-01 00:01:00,
2013-05-31 18:11:00,56.0,32.0,29.83,SW,220,15.0,27.0,40,0.00,,,0.00,,2013-06-01 00:11:00,
2013-05-31 18:22:00,56.0,33.0,29.84,SW,223,16.0,27.0,41,0.00,,,0.00,,2013-06-01 00:22:00,
2013-05-31 18:31:00,56.0,32.0,29.85,SW,221,17.0,28.0,40,0.00,,,0.00,,2013-06-01 00:31:00,
2013-05-31 18:42:00,56.0,32.0,29.85,SW,226,17.0,23.0,40,0.00,,,0.00,,2013-06-01 00:42:00,
2013-05-31 18:51:00,56.0,32.0,29.85,SW,226,17.0,23.0,40,0.00,,,0.00,,2013-06-01 00:51:00,
2013-05-31 19:01:00,56.0,32.0,29.87,SSW,196,10.0,25.0,40,0.00,,,0.00,,2013-06-01 01:01:00,
2013-05-31 19:11:00,56.0,32.0,29.87,SSW,196,10.0,25.0,40,0.00,,,0.00,,2013-06-01 01:11:00,
2013-05-31 19:21:00,56.0,31.0,29.88,SW,223,5.0,21.0,38,0.00,,,0.00,,2013-06-01 01:21:00,
2013-05-31 19:32:00,56.0,32.0,29.89,SSW,211,9.0,16.0,40,0.00,,,0.00,,2013-06-01 01:32:00,
2013-05-31 19:42:00,56.0,38.0,29.90,ENE,73,10.0,16.0,50,0.00,,,0.00,,2013-06-01 01:42:00,
2013-05-31 19:52:00,56.0,38.0,29.90,ENE,73,10.0,16.0,50,0.00,,,0.00,,2013-06-01 01:52:00,
2013-05-31 20:01:00,52.0,39.0,29.92,NE,52,12.0,23.0,61,0.00,,,0.00,,2013-06-01 02:01:00,
2013-05-31 20:11:00,52.0,39.0,29.92,NE,52,12.0,23.0,61,0.00,,,0.00,,2013-06-01 02:11:00,
2013-05-31 20:21:00,51.0,40.0,29.92,SE,125,11.0,15.0,67,0.00,,,0.00,,2013-06-01 02:21:00,
2013-05-31 20:31:00,50.0,40.0,29.93,ENE,78,9.0,19.0,68,0.00,,,0.00,,2013-06-01 02:31:00,
2013-05-31 20:42:00,50.0,39.0,29.93,ENE,57,14.0,20.0,66,0.00,,,0.00,,2013-06-01 02:42:00,
2013-05-31 20:51:00,50.0,39.0,29.93,ENE,57,14.0,20.0,66,0.00,,,0.00,,2013-06-01 02:51:00,
2013-05-31 21:01:00,49.0,40.0,29.96,NNE,32,7.0,13.0,70,0.00,,,0.00,,2013-06-01 03:01:00,
2013-05-31 21:11:00,49.0,40.0,29.96,NE,40,9.0,16.0,72,0.00,,,0.00,,2013-06-01 03:11:00,
2013-05-31 21:21:00,49.0,40.0,29.96,NE,40,9.0,16.0,72,0.00,,,0.00,,2013-06-01 03:21:00,
2013-05-31 21:33:00,48.0,41.0,29.97,NE,40,7.0,11.0,76,0.00,,,0.00,,2013-06-01 03:33:00,
2013-05-31 21:43:00,48.0,40.0,29.98,NNE,33,7.0,11.0,75,0.00,,,0.00,,2013-06-01 03:43:00,
2013-05-31 21:53:00,48.0,40.0,29.98,NNE,33,7.0,11.0,75,0.00,,,0.00,,2013-06-01 03:53:00,
2013-05-31 22:02:00,48.0,41.0,29.99,ENE,67,3.0,8.0,78,0.00,,,0.00,,2013-06-01 04:02:00,
2013-05-31 22:12:00,48.0,41.0,29.99,ENE,67,3.0,8.0,78,0.00,,,0.00,,2013-06-01 04:12:00,
2013-05-31 22:22:00,48.0,41.0,30.00,ENE,74,6.0,10.0,78,0.00,,,0.00,,2013-06-01 04:22:00,
2013-05-31 22:33:00,47.0,41.0,30.01,NE,55,3.0,7.0,79,0.00,,,0.00,,2013-06-01 04:33:00,
2013-05-31 22:42:00,47.0,41.0,30.02,SSE,167,5.0,8.0,80,0.00,,,0.00,,2013-06-01 04:42:00,
2013-05-31 22:53:00,47.0,41.0,30.02,SSE,167,5.0,8.0,80,0.00,,,0.00,,2013-06-01 04:53:00,
2013-05-31 23:02:00,47.0,41.0,30.02,South,181,6.0,8.0,80,0.00,,,0.00,,2013-06-01 05:02:00,
2013-05-31 23:12:00,47.0,41.0,30.02,South,181,6.0,8.0,80,0.00,,,0.00,,2013-06-01 05:12:00,
2013-05-31 23:22:00,47.0,41.0,30.02,SSW,209,7.0,11.0,80,0.00,,,0.00,,2013-06-01 05:22:00,
2013-05-31 23:32:00,47.0,41.0,30.02,SSW,201,6.0,10.0,80,0.00,,,0.00,,2013-06-01 05:32:00,
2013-05-31 23:42:00,47.0,41.0,30.03,SSW,193,6.0,8.0,80,0.00,,,0.00,,2013-06-01 05:42:00,
2013-05-31 23:52:00,47.0,41.0,30.03,SSW,193,6.0,8.0,80,0.00,,,0.00,,2013-06-01 05:52:00,